Year,Month,Day,Hour,Minute,Value (Times are PST for temperature in C)
2018,10,19,00,00,7.60
2018,10,19,00,01,7.60
2018,10,19,00,02,7.60
2018,10,19,00,03,7.60
2018,10,19,00,04,7.60
2018,10,19,00,05,7.60
2018,10,19,00,06,7.60
2018,10,19,00,07,7.60
2018,10,19,00,08,7.60
2018,10,19,00,09,7.60
2018,10,19,00,10,7.60
2018,10,19,00,11,7.60
2018,10,19,00,12,7.60
2018,10,19,00,13,7.60
2018,10,19,00,14,7.60
2018,10,19,00,15,7.60
2018,10,19,00,16,7.60
2018,10,19,00,17,7.60
2018,10,19,00,18,7.60
2018,10,19,00,19,7.60
2018,10,19,00,20,7.50
2018,10,19,00,21,7.50
2018,10,19,00,22,7.40
2018,10,19,00,23,7.40
2018,10,19,00,24,7.30
2018,10,19,00,25,7.30
2018,10,19,00,26,7.30
2018,10,19,00,27,7.20
2018,10,19,00,28,7.20
2018,10,19,00,29,7.20
2018,10,19,00,30,7.20
2018,10,19,00,31,7.20
2018,10,19,00,32,7.20
2018,10,19,00,33,7.20
2018,10,19,00,34,7.20
2018,10,19,00,35,7.20
2018,10,19,00,36,7.20
2018,10,19,00,37,7.20
2018,10,19,00,38,7.20
2018,10,19,00,39,7.20
2018,10,19,00,40,7.20
2018,10,19,00,41,7.20
2018,10,19,00,42,7.30
2018,10,19,00,43,7.30
2018,10,19,00,44,7.40
2018,10,19,00,45,7.40
2018,10,19,00,46,7.40
2018,10,19,00,47,7.40
2018,10,19,00,48,7.30
2018,10,19,00,49,7.30
2018,10,19,00,50,7.30
2018,10,19,00,51,7.20
2018,10,19,00,52,7.20
2018,10,19,00,53,7.20
2018,10,19,00,54,7.20
2018,10,19,00,55,7.20
2018,10,19,00,56,7.10
2018,10,19,00,57,7.10
2018,10,19,00,58,7.10
2018,10,19,00,59,7.10
2018,10,19,01,00,7.10
2018,10,19,01,01,7.10
2018,10,19,01,02,7.10
2018,10,19,01,03,7.10
2018,10,19,01,04,7.10
2018,10,19,01,05,7.10
2018,10,19,01,06,7.10
2018,10,19,01,07,7.10
2018,10,19,01,08,7.10
2018,10,19,01,09,7.10
2018,10,19,01,10,7.00
2018,10,19,01,11,7.00
2018,10,19,01,12,6.90
2018,10,19,01,13,6.90
2018,10,19,01,14,6.90
2018,10,19,01,15,6.90
2018,10,19,01,16,6.90
2018,10,19,01,17,6.80
2018,10,19,01,18,6.80
2018,10,19,01,19,6.80
2018,10,19,01,20,6.80
2018,10,19,01,21,6.80
2018,10,19,01,22,6.80
2018,10,19,01,23,6.80
2018,10,19,01,24,6.80
2018,10,19,01,25,6.80
2018,10,19,01,26,6.80
2018,10,19,01,27,6.80
2018,10,19,01,28,6.80
2018,10,19,01,29,6.80
2018,10,19,01,30,6.80
2018,10,19,01,31,6.80
2018,10,19,01,32,6.80
2018,10,19,01,33,6.80
2018,10,19,01,34,6.80
2018,10,19,01,35,6.80
2018,10,19,01,36,6.80
2018,10,19,01,37,6.80
2018,10,19,01,38,6.80
2018,10,19,01,39,6.80
2018,10,19,01,40,6.80
2018,10,19,01,41,6.80
2018,10,19,01,42,6.90
2018,10,19,01,43,6.90
2018,10,19,01,44,6.90
2018,10,19,01,45,6.90
2018,10,19,01,46,6.90
2018,10,19,01,47,6.90
2018,10,19,01,48,6.90
2018,10,19,01,49,6.90
2018,10,19,01,50,6.90
2018,10,19,01,51,6.80
2018,10,19,01,52,6.80
2018,10,19,01,53,6.80
2018,10,19,01,54,6.80
2018,10,19,01,55,6.80
2018,10,19,01,56,6.80
2018,10,19,01,57,6.80
2018,10,19,01,58,6.80
2018,10,19,01,59,6.80
2018,10,19,02,00,6.80
2018,10,19,02,01,6.80
2018,10,19,02,02,6.80
2018,10,19,02,03,6.80
2018,10,19,02,04,6.80
2018,10,19,02,05,6.80
2018,10,19,02,06,6.90
2018,10,19,02,07,6.90
2018,10,19,02,08,6.90
2018,10,19,02,09,6.90
2018,10,19,02,10,6.90
2018,10,19,02,11,6.80
2018,10,19,02,12,6.80
2018,10,19,02,13,6.80
2018,10,19,02,14,6.80
2018,10,19,02,15,6.80
2018,10,19,02,16,6.80
2018,10,19,02,17,6.80
2018,10,19,02,18,6.80
2018,10,19,02,19,6.80
2018,10,19,02,20,6.80
2018,10,19,02,21,6.80
2018,10,19,02,22,6.80
2018,10,19,02,23,6.80
2018,10,19,02,24,6.80
2018,10,19,02,25,6.80
2018,10,19,02,26,6.80
2018,10,19,02,27,6.70
2018,10,19,02,28,6.70
2018,10,19,02,29,6.70
2018,10,19,02,30,6.70
2018,10,19,02,31,6.70
2018,10,19,02,32,6.70
2018,10,19,02,33,6.70
2018,10,19,02,34,6.60
2018,10,19,02,35,6.60
2018,10,19,02,36,6.60
2018,10,19,02,37,6.60
2018,10,19,02,38,6.50
2018,10,19,02,39,6.50
2018,10,19,02,40,6.50
2018,10,19,02,41,6.40
2018,10,19,02,42,6.40
2018,10,19,02,43,6.40
2018,10,19,02,44,6.40
2018,10,19,02,45,6.40
2018,10,19,02,46,6.30
2018,10,19,02,47,6.30
2018,10,19,02,48,6.30
2018,10,19,02,49,6.30
2018,10,19,02,50,6.30
2018,10,19,02,51,6.30
2018,10,19,02,52,6.30
2018,10,19,02,53,6.30
2018,10,19,02,54,6.30
2018,10,19,02,55,6.30
2018,10,19,02,56,6.30
2018,10,19,02,57,6.30
2018,10,19,02,58,6.30
2018,10,19,02,59,6.30
2018,10,19,03,00,6.30
2018,10,19,03,01,6.30
2018,10,19,03,02,6.30
2018,10,19,03,03,6.40
2018,10,19,03,04,6.40
2018,10,19,03,05,6.40
2018,10,19,03,06,6.40
2018,10,19,03,07,6.40
2018,10,19,03,08,6.40
2018,10,19,03,09,6.40
2018,10,19,03,10,6.50
2018,10,19,03,11,6.50
2018,10,19,03,12,6.50
2018,10,19,03,13,6.50
2018,10,19,03,14,6.50
2018,10,19,03,15,6.50
2018,10,19,03,16,6.50
2018,10,19,03,17,6.50
2018,10,19,03,18,6.50
2018,10,19,03,19,6.40
2018,10,19,03,20,6.40
2018,10,19,03,21,6.40
2018,10,19,03,22,6.50
2018,10,19,03,23,6.50
2018,10,19,03,24,6.50
2018,10,19,03,25,6.40
2018,10,19,03,26,6.40
2018,10,19,03,27,6.40
2018,10,19,03,28,6.40
2018,10,19,03,29,6.40
2018,10,19,03,30,6.40
2018,10,19,03,31,6.40
2018,10,19,03,32,6.40
2018,10,19,03,33,6.30
2018,10,19,03,34,6.30
2018,10,19,03,35,6.30
2018,10,19,03,36,6.30
2018,10,19,03,37,6.30
2018,10,19,03,38,6.30
2018,10,19,03,39,6.30
2018,10,19,03,40,6.30
2018,10,19,03,41,6.20
2018,10,19,03,42,6.20
2018,10,19,03,43,6.20
2018,10,19,03,44,6.20
2018,10,19,03,45,6.20
2018,10,19,03,46,6.20
2018,10,19,03,47,6.20
2018,10,19,03,48,6.20
2018,10,19,03,49,6.20
2018,10,19,03,50,6.20
2018,10,19,03,51,6.20
2018,10,19,03,52,6.20
2018,10,19,03,53,6.20
2018,10,19,03,54,6.20
2018,10,19,03,55,6.20
2018,10,19,03,56,6.20
2018,10,19,03,57,6.20
2018,10,19,03,58,6.10
2018,10,19,03,59,6.10
2018,10,19,04,00,6.10
2018,10,19,04,01,6.10
2018,10,19,04,02,6.10
2018,10,19,04,03,6.10
2018,10,19,04,04,6.10
2018,10,19,04,05,6.10
2018,10,19,04,06,6.10
2018,10,19,04,07,6.10
2018,10,19,04,08,6.10
2018,10,19,04,09,6.10
2018,10,19,04,10,6.10
2018,10,19,04,11,6.00
2018,10,19,04,12,6.00
2018,10,19,04,13,6.00
2018,10,19,04,14,6.00
2018,10,19,04,15,6.00
2018,10,19,04,16,6.00
2018,10,19,04,17,6.00
2018,10,19,04,18,5.90
2018,10,19,04,19,5.90
2018,10,19,04,20,5.90
2018,10,19,04,21,5.90
2018,10,19,04,22,5.90
2018,10,19,04,23,5.90
2018,10,19,04,24,5.80
2018,10,19,04,25,5.80
2018,10,19,04,26,5.80
2018,10,19,04,27,5.80
2018,10,19,04,28,5.80
2018,10,19,04,29,5.70
2018,10,19,04,30,5.70
2018,10,19,04,31,5.80
2018,10,19,04,32,5.80
2018,10,19,04,33,5.80
2018,10,19,04,34,5.80
2018,10,19,04,35,5.80
2018,10,19,04,36,5.80
2018,10,19,04,37,5.80
2018,10,19,04,38,5.80
2018,10,19,04,39,5.80
2018,10,19,04,40,5.80
2018,10,19,04,41,5.80
2018,10,19,04,42,5.80
2018,10,19,04,43,5.80
2018,10,19,04,44,5.80
2018,10,19,04,45,5.70
2018,10,19,04,46,5.70
2018,10,19,04,47,5.70
2018,10,19,04,48,5.70
2018,10,19,04,49,5.70
2018,10,19,04,50,5.70
2018,10,19,04,51,5.70
2018,10,19,04,52,5.70
2018,10,19,04,53,5.70
2018,10,19,04,54,5.70
2018,10,19,04,55,5.70
2018,10,19,04,56,5.80
2018,10,19,04,57,5.80
2018,10,19,04,58,5.90
2018,10,19,04,59,6.00
2018,10,19,05,00,6.10
2018,10,19,05,01,6.20
2018,10,19,05,02,6.30
2018,10,19,05,03,6.30
2018,10,19,05,04,6.30
2018,10,19,05,05,6.30
2018,10,19,05,06,6.30
2018,10,19,05,07,6.20
2018,10,19,05,08,6.10
2018,10,19,05,09,6.10
2018,10,19,05,10,6.00
2018,10,19,05,11,6.00
2018,10,19,05,12,5.90
2018,10,19,05,13,5.90
2018,10,19,05,14,5.80
2018,10,19,05,15,5.80
2018,10,19,05,16,5.80
2018,10,19,05,17,5.80
2018,10,19,05,18,5.70
2018,10,19,05,19,5.70
2018,10,19,05,20,5.60
2018,10,19,05,21,5.60
2018,10,19,05,22,5.50
2018,10,19,05,23,5.50
2018,10,19,05,24,5.40
2018,10,19,05,25,5.40
2018,10,19,05,26,5.30
2018,10,19,05,27,5.30
2018,10,19,05,28,5.20
2018,10,19,05,29,5.20
2018,10,19,05,30,5.20
2018,10,19,05,31,5.20
2018,10,19,05,32,5.20
2018,10,19,05,33,5.20
2018,10,19,05,34,5.20
2018,10,19,05,35,5.20
2018,10,19,05,36,5.20
2018,10,19,05,37,5.20
2018,10,19,05,38,5.20
2018,10,19,05,39,5.20
2018,10,19,05,40,5.20
2018,10,19,05,41,5.20
2018,10,19,05,42,5.30
2018,10,19,05,43,5.30
2018,10,19,05,44,5.30
2018,10,19,05,45,5.40
2018,10,19,05,46,5.40
2018,10,19,05,47,5.40
2018,10,19,05,48,5.40
2018,10,19,05,49,5.40
2018,10,19,05,50,5.40
2018,10,19,05,51,5.40
2018,10,19,05,52,5.40
2018,10,19,05,53,5.40
2018,10,19,05,54,5.40
2018,10,19,05,55,5.50
2018,10,19,05,56,5.50
2018,10,19,05,57,5.50
2018,10,19,05,58,5.60
2018,10,19,05,59,5.60
2018,10,19,06,00,5.60
2018,10,19,06,01,5.50
2018,10,19,06,02,5.50
2018,10,19,06,03,5.50
2018,10,19,06,04,5.40
2018,10,19,06,05,5.40
2018,10,19,06,06,5.30
2018,10,19,06,07,5.30
2018,10,19,06,08,5.30
2018,10,19,06,09,5.20
2018,10,19,06,10,5.20
2018,10,19,06,11,5.20
2018,10,19,06,12,5.20
2018,10,19,06,13,5.20
2018,10,19,06,14,5.20
2018,10,19,06,15,5.10
2018,10,19,06,16,5.10
2018,10,19,06,17,5.10
2018,10,19,06,18,5.10
2018,10,19,06,19,5.00
2018,10,19,06,20,5.00
2018,10,19,06,21,5.00
2018,10,19,06,22,5.10
2018,10,19,06,23,5.10
2018,10,19,06,24,5.20
2018,10,19,06,25,5.40
2018,10,19,06,26,5.50
2018,10,19,06,27,5.60
2018,10,19,06,28,5.70
2018,10,19,06,29,5.70
2018,10,19,06,30,5.70
2018,10,19,06,31,5.70
2018,10,19,06,32,5.70
2018,10,19,06,33,5.70
2018,10,19,06,34,5.70
2018,10,19,06,35,5.70
2018,10,19,06,36,5.70
2018,10,19,06,37,5.70
2018,10,19,06,38,5.70
2018,10,19,06,39,5.70
2018,10,19,08,54,6.40
2018,10,19,08,55,6.40
2018,10,19,08,56,6.50
2018,10,19,08,57,6.50
2018,10,19,08,58,6.60
2018,10,19,08,59,6.60
2018,10,19,09,00,6.70
2018,10,19,09,01,6.70
2018,10,19,09,02,6.80
2018,10,19,09,03,6.90
2018,10,19,09,04,7.00
2018,10,19,09,05,7.20
2018,10,19,09,06,7.30
2018,10,19,09,07,7.50
2018,10,19,09,08,7.60
2018,10,19,09,09,7.70
2018,10,19,09,10,7.80
2018,10,19,09,11,7.90
2018,10,19,09,12,8.00
2018,10,19,09,13,8.10
2018,10,19,09,14,8.20
2018,10,19,09,15,8.30
2018,10,19,09,16,8.40
2018,10,19,09,17,8.50
2018,10,19,09,18,8.60
2018,10,19,09,19,8.70
2018,10,19,09,20,8.80
2018,10,19,09,21,8.90
2018,10,19,09,22,9.00
2018,10,19,09,23,9.10
2018,10,19,09,24,9.20
2018,10,19,09,25,9.30
2018,10,19,09,26,9.30
2018,10,19,09,27,9.40
2018,10,19,09,28,9.50
2018,10,19,09,29,9.60
2018,10,19,09,30,9.60
2018,10,19,09,31,9.70
2018,10,19,09,32,9.80
2018,10,19,09,33,9.80
2018,10,19,09,34,9.90
2018,10,19,09,35,9.90
2018,10,19,09,36,10.00
2018,10,19,09,37,10.10
2018,10,19,09,38,10.10
2018,10,19,09,39,10.10
2018,10,19,09,40,10.10
2018,10,19,09,41,10.20
2018,10,19,09,42,10.20
2018,10,19,09,43,10.20
2018,10,19,09,44,10.20
2018,10,19,09,45,10.30
2018,10,19,09,46,10.30
2018,10,19,09,47,10.30
2018,10,19,09,48,10.40
2018,10,19,09,49,10.40
2018,10,19,09,50,10.50
2018,10,19,09,51,10.60
2018,10,19,09,52,10.60
2018,10,19,09,53,10.70
2018,10,19,09,54,10.70
2018,10,19,09,55,10.80
2018,10,19,09,56,10.80
2018,10,19,09,57,10.80
2018,10,19,09,58,10.80
2018,10,19,09,59,10.80
2018,10,19,10,00,10.90
2018,10,19,10,01,10.90
2018,10,19,10,02,10.90
2018,10,19,10,03,11.00
2018,10,19,10,04,11.00
2018,10,19,10,05,11.00
2018,10,19,10,06,11.00
2018,10,19,10,07,10.90
2018,10,19,10,08,10.90
2018,10,19,10,09,10.90
2018,10,19,10,10,10.90
2018,10,19,10,11,10.90
2018,10,19,10,12,10.90
2018,10,19,10,13,10.90
2018,10,19,10,14,11.00
2018,10,19,10,15,11.00
2018,10,19,10,16,11.10
2018,10,19,10,17,11.10
2018,10,19,10,18,11.10
2018,10,19,10,19,11.10
2018,10,19,10,20,11.10
2018,10,19,10,21,11.10
2018,10,19,10,22,11.10
2018,10,19,10,23,11.10
2018,10,19,10,24,11.10
2018,10,19,10,25,11.10
2018,10,19,10,26,11.10
2018,10,19,10,27,11.10
2018,10,19,10,28,11.10
2018,10,19,10,29,11.10
2018,10,19,10,30,11.10
2018,10,19,10,31,11.10
2018,10,19,10,32,11.10
2018,10,19,10,33,11.20
2018,10,19,10,34,11.20
2018,10,19,10,35,11.30
2018,10,19,10,36,11.30
2018,10,19,10,37,11.40
2018,10,19,10,38,11.40
2018,10,19,10,39,11.50
2018,10,19,10,40,11.60
2018,10,19,10,41,11.70
2018,10,19,10,42,11.80
2018,10,19,10,43,11.90
2018,10,19,10,44,12.00
2018,10,19,10,45,12.10
2018,10,19,10,46,12.20
2018,10,19,10,47,12.20
2018,10,19,10,48,12.30
2018,10,19,10,49,12.40
2018,10,19,10,50,12.50
2018,10,19,10,51,12.60
2018,10,19,10,52,12.60
2018,10,19,10,53,12.70
2018,10,19,10,54,12.70
2018,10,19,10,55,12.80
2018,10,19,10,56,12.80
2018,10,19,10,57,12.80
2018,10,19,10,58,12.90
2018,10,19,10,59,13.00
2018,10,19,11,00,13.00
2018,10,19,11,01,13.10
2018,10,19,11,02,13.20
2018,10,19,11,03,13.20
2018,10,19,11,04,13.30
2018,10,19,11,05,13.30
2018,10,19,11,06,13.40
2018,10,19,11,07,13.40
2018,10,19,11,08,13.40
2018,10,19,11,09,13.40
2018,10,19,11,10,13.50
2018,10,19,11,11,13.50
2018,10,19,11,12,13.50
2018,10,19,11,13,13.60
2018,10,19,11,14,13.60
2018,10,19,11,15,13.60
2018,10,19,11,16,13.60
2018,10,19,11,17,13.60
2018,10,19,11,18,13.60
2018,10,19,11,19,13.60
2018,10,19,11,20,13.70
2018,10,19,11,21,13.70
2018,10,19,11,22,13.70
2018,10,19,11,23,13.70
2018,10,19,11,24,13.70
2018,10,19,11,25,13.70
2018,10,19,11,26,13.70
2018,10,19,11,27,13.80
2018,10,19,11,28,13.80
2018,10,19,11,29,13.70
2018,10,19,11,30,13.70
2018,10,19,11,31,13.80
2018,10,19,11,32,13.80
2018,10,19,11,33,13.80
2018,10,19,12,01,14.70
2018,10,19,12,02,14.70
2018,10,19,12,03,14.70
2018,10,19,12,04,14.70
2018,10,19,12,05,14.70
2018,10,19,12,06,14.70
2018,10,19,12,07,14.70
2018,10,19,12,08,14.70
2018,10,19,12,09,14.70
2018,10,19,12,10,14.70
2018,10,19,12,11,14.70
2018,10,19,12,12,14.70
2018,10,19,12,13,14.60
2018,10,19,12,14,14.70
2018,10,19,12,15,14.70
2018,10,19,12,16,14.70
2018,10,19,12,17,14.70
2018,10,19,12,18,14.70
2018,10,19,12,19,14.70
2018,10,19,12,20,14.70
2018,10,19,12,21,14.70
2018,10,19,12,22,14.70
2018,10,19,12,23,14.70
2018,10,19,12,24,14.70
2018,10,19,12,25,14.70
2018,10,19,12,26,14.70
2018,10,19,12,27,14.70
2018,10,19,12,28,14.70
2018,10,19,12,29,14.70
2018,10,19,12,30,14.70
2018,10,19,12,31,14.60
2018,10,19,12,32,14.60
2018,10,19,12,33,14.60
2018,10,19,12,34,14.60
2018,10,19,12,35,14.60
2018,10,19,12,36,14.70
2018,10,19,12,37,14.70
2018,10,19,12,38,14.70
2018,10,19,12,39,14.70
2018,10,19,12,40,14.80
2018,10,19,12,41,14.80
2018,10,19,12,42,14.80
2018,10,19,12,43,14.80
2018,10,19,12,44,14.70
2018,10,19,12,45,14.70
2018,10,19,12,46,14.70
2018,10,19,12,47,14.80
2018,10,19,12,48,14.80
2018,10,19,12,49,14.80
2018,10,19,12,50,14.80
2018,10,19,12,51,14.80
2018,10,19,12,52,14.80
2018,10,19,12,53,14.80
2018,10,19,12,54,14.80
2018,10,19,12,55,14.80
2018,10,19,12,56,14.80
2018,10,19,12,57,14.80
2018,10,19,12,58,14.80
2018,10,19,12,59,14.80
2018,10,19,13,00,14.80
2018,10,19,13,01,14.80
2018,10,19,13,02,14.70
2018,10,19,13,03,14.80
2018,10,19,13,04,14.80
2018,10,19,13,05,14.80
2018,10,19,13,06,14.80
2018,10,19,13,07,14.80
2018,10,19,13,08,14.80
2018,10,19,13,14,15.00
2018,10,19,13,15,15.10
2018,10,19,13,16,15.10
2018,10,19,13,17,15.10
2018,10,19,13,18,15.10
2018,10,19,13,19,15.10
2018,10,19,13,20,15.00
2018,10,19,13,21,15.00
2018,10,19,13,22,15.00
2018,10,19,13,23,15.00
2018,10,19,13,24,15.00
2018,10,19,13,25,15.00
2018,10,19,13,26,15.00
2018,10,19,13,27,15.00
2018,10,19,13,28,15.00
2018,10,19,13,29,14.90
2018,10,19,13,30,14.90
2018,10,19,13,31,14.90
2018,10,19,13,32,14.90
2018,10,19,13,33,14.80
2018,10,19,13,34,14.80
2018,10,19,13,35,14.80
2018,10,19,13,36,14.80
2018,10,19,13,37,14.80
2018,10,19,13,38,14.80
2018,10,19,13,39,14.80
2018,10,19,13,40,14.80
2018,10,19,13,41,14.80
2018,10,19,13,42,14.80
2018,10,19,13,43,14.90
2018,10,19,13,44,14.90
2018,10,19,13,45,14.90
2018,10,19,13,46,14.90
2018,10,19,13,47,14.90
2018,10,19,13,48,14.90
2018,10,19,13,49,15.00
2018,10,19,13,50,15.00
2018,10,19,13,51,15.10
2018,10,19,13,52,15.10
2018,10,19,13,53,15.10
2018,10,19,13,54,15.10
2018,10,19,13,55,15.10
2018,10,19,13,56,15.20
2018,10,19,13,57,15.20
2018,10,19,13,58,15.20
2018,10,19,13,59,15.20
2018,10,19,14,00,15.30
2018,10,19,14,01,15.30
2018,10,19,14,02,15.30
2018,10,19,14,03,15.30
2018,10,19,14,04,15.30
2018,10,19,14,05,15.30
2018,10,19,14,06,15.30
2018,10,19,14,07,15.40
2018,10,19,14,08,15.30
2018,10,19,14,09,15.30
2018,10,19,14,10,15.30
2018,10,19,14,11,15.30
2018,10,19,14,12,15.30
2018,10,19,14,13,15.40
2018,10,19,14,14,15.40
2018,10,19,14,15,15.40
2018,10,19,14,16,15.50
2018,10,19,14,17,15.50
2018,10,19,14,18,15.60
2018,10,19,14,19,15.70
2018,10,19,14,20,15.70
2018,10,19,14,21,15.70
2018,10,19,14,22,15.70
2018,10,19,14,23,15.70
2018,10,19,14,24,15.70
2018,10,19,14,25,15.70
2018,10,19,14,26,15.70
2018,10,19,14,27,15.70
2018,10,19,14,28,15.70
2018,10,19,14,29,15.70
2018,10,19,14,30,15.70
2018,10,19,14,31,15.70
2018,10,19,14,32,15.80
2018,10,19,14,33,15.80
2018,10,19,14,34,15.80
2018,10,19,14,35,15.90
2018,10,19,14,36,15.90
2018,10,19,14,37,15.90
2018,10,19,14,38,16.00
2018,10,19,14,39,16.00
2018,10,19,14,40,16.00
2018,10,19,14,41,16.00
2018,10,19,14,42,16.00
2018,10,19,14,43,16.00
2018,10,19,14,44,16.10
2018,10,19,14,45,16.10
2018,10,19,14,46,16.10
2018,10,19,14,47,16.00
2018,10,19,14,48,15.90
2018,10,19,14,49,15.80
2018,10,19,14,50,15.80
2018,10,19,14,51,15.70
2018,10,19,14,52,15.70
2018,10,19,14,53,15.60
2018,10,19,14,54,15.60
2018,10,19,14,55,15.50
2018,10,19,14,56,15.40
2018,10,19,14,57,15.40
2018,10,19,14,58,15.40
2018,10,19,14,59,15.50
2018,10,19,15,00,15.50
2018,10,19,15,01,15.50
2018,10,19,15,02,15.60
2018,10,19,15,03,15.60
2018,10,19,15,04,15.60
2018,10,19,15,05,15.60
2018,10,19,15,06,15.60
2018,10,19,15,07,15.60
2018,10,19,15,08,15.60
2018,10,19,15,09,15.60
2018,10,19,15,10,15.60
2018,10,19,15,11,15.70
2018,10,19,15,12,15.70
2018,10,19,15,13,15.70
2018,10,19,15,14,15.80
2018,10,19,15,15,15.80
2018,10,19,15,16,15.90
2018,10,19,15,17,15.90
2018,10,19,15,18,15.90
2018,10,19,15,19,15.90
2018,10,19,15,20,15.90
2018,10,19,15,21,15.90
2018,10,19,15,22,16.00
2018,10,19,15,23,16.00
2018,10,19,15,24,16.10
2018,10,19,15,25,16.10
2018,10,19,15,26,16.10
2018,10,19,15,27,16.10
2018,10,19,15,28,16.10
2018,10,19,15,29,16.10
2018,10,19,15,30,16.10
2018,10,19,15,31,16.10
2018,10,19,15,32,16.10
2018,10,19,15,33,16.10
2018,10,19,15,34,16.10
2018,10,19,15,35,16.00
2018,10,19,15,36,16.00
2018,10,19,15,37,16.00
2018,10,19,15,38,16.00
2018,10,19,15,39,16.10
2018,10,19,15,40,16.10
2018,10,19,15,41,16.10
2018,10,19,15,42,16.10
2018,10,19,15,43,16.10
2018,10,19,15,44,16.10
2018,10,19,15,45,16.20
2018,10,19,15,46,16.20
2018,10,19,15,47,16.20
2018,10,19,15,48,16.20
2018,10,19,15,49,16.20
2018,10,19,15,50,16.30
2018,10,19,15,51,16.30
2018,10,19,15,52,16.30
2018,10,19,15,53,16.30
2018,10,19,15,54,16.30
2018,10,19,15,55,16.30
2018,10,19,15,56,16.30
2018,10,19,15,57,16.30
2018,10,19,15,58,16.30
2018,10,19,15,59,16.30
2018,10,19,16,00,16.30
2018,10,19,16,01,16.30
2018,10,19,16,02,16.20
2018,10,19,16,03,16.20
2018,10,19,16,04,16.10
2018,10,19,16,05,16.00
2018,10,19,16,06,16.00
2018,10,19,16,07,15.90
2018,10,19,16,08,15.90
2018,10,19,16,09,15.90
2018,10,19,16,10,15.80
2018,10,19,16,11,15.80
2018,10,19,16,12,15.80
2018,10,19,16,13,15.90
2018,10,19,16,14,15.90
2018,10,19,16,15,15.90
2018,10,19,16,16,15.90
2018,10,19,16,17,15.90
2018,10,19,16,18,16.00
2018,10,19,16,19,16.00
2018,10,19,16,20,16.00
2018,10,19,16,21,16.00
2018,10,19,16,22,16.00
2018,10,19,16,23,16.00
2018,10,19,16,24,16.10
2018,10,19,16,25,16.10
2018,10,19,16,26,16.10
2018,10,19,16,27,16.10
2018,10,19,16,28,16.10
2018,10,19,16,29,16.10
2018,10,19,16,30,16.10
2018,10,19,16,31,16.10
2018,10,19,16,32,16.10
2018,10,19,16,33,16.10
2018,10,19,16,34,16.10
2018,10,19,16,35,16.00
2018,10,19,16,36,16.00
2018,10,19,16,37,16.00
2018,10,19,16,38,16.00
2018,10,19,16,39,15.90
2018,10,19,16,40,15.90
2018,10,19,16,41,15.90
2018,10,19,16,42,15.90
2018,10,19,16,43,15.90
2018,10,19,16,44,15.90
2018,10,19,16,45,15.90
2018,10,19,16,46,15.90
2018,10,19,16,47,15.90
2018,10,19,16,48,15.80
2018,10,19,16,49,15.80
2018,10,19,16,50,15.70
2018,10,19,16,51,15.70
2018,10,19,16,52,15.70
2018,10,19,16,53,15.70
2018,10,19,16,54,15.70
2018,10,19,16,55,15.70
2018,10,19,16,56,15.70
2018,10,19,16,57,15.70
2018,10,19,16,58,15.70
2018,10,19,16,59,15.70
2018,10,19,17,00,15.70
2018,10,19,17,01,15.70
2018,10,19,17,02,15.70
2018,10,19,17,03,15.70
2018,10,19,17,04,15.70
2018,10,19,17,05,15.80
2018,10,19,17,06,15.80
2018,10,19,17,07,15.80
2018,10,19,17,08,15.80
2018,10,19,17,09,15.70
2018,10,19,17,10,15.70
2018,10,19,17,11,15.70
2018,10,19,17,12,15.60
2018,10,19,17,13,15.60
2018,10,19,17,14,15.60
2018,10,19,17,15,15.50
2018,10,19,17,16,15.40
2018,10,19,17,17,15.40
2018,10,19,17,18,15.30
2018,10,19,17,19,15.30
2018,10,19,17,20,15.20
2018,10,19,17,21,15.10
2018,10,19,17,22,15.10
2018,10,19,17,23,15.00
2018,10,19,17,24,14.90
2018,10,19,17,25,14.90
2018,10,19,17,26,14.80
2018,10,19,17,27,14.80
2018,10,19,17,28,14.80
2018,10,19,17,29,14.70
2018,10,19,17,30,14.60
2018,10,19,17,31,14.60
2018,10,19,17,32,14.50
2018,10,19,17,33,14.40
2018,10,19,17,34,14.40
2018,10,19,17,35,14.30
2018,10,19,17,36,14.30
2018,10,19,17,37,14.20
2018,10,19,17,38,14.20
2018,10,19,17,39,14.10
2018,10,19,17,40,14.10
2018,10,19,17,41,14.00
2018,10,19,17,42,14.00
2018,10,19,17,43,13.90
2018,10,19,17,44,13.90
2018,10,19,17,45,13.80
2018,10,19,17,46,13.80
2018,10,19,17,47,13.80
2018,10,19,17,48,13.70
2018,10,19,17,49,13.70
2018,10,19,17,50,13.70
2018,10,19,17,51,13.60
2018,10,19,17,52,13.60
2018,10,19,17,53,13.60
2018,10,19,17,54,13.60
2018,10,19,17,55,13.60
2018,10,19,17,56,13.50
2018,10,19,17,57,13.50
2018,10,19,17,58,13.50
2018,10,19,17,59,13.40
2018,10,19,18,00,13.40
2018,10,19,18,01,13.40
2018,10,19,18,02,13.40
2018,10,19,18,03,13.30
2018,10,19,18,04,13.30
2018,10,19,18,05,13.30
2018,10,19,18,06,13.30
2018,10,19,18,07,13.30
2018,10,19,18,08,13.20
2018,10,19,18,09,13.20
2018,10,19,18,10,13.20
2018,10,19,18,11,13.20
2018,10,19,18,12,13.20
2018,10,19,18,13,13.10
2018,10,19,18,14,13.10
2018,10,19,18,15,13.10
2018,10,19,18,16,13.10
2018,10,19,18,17,13.00
2018,10,19,18,18,13.00
2018,10,19,18,19,13.00
2018,10,19,18,20,12.90
2018,10,19,18,21,12.90
2018,10,19,18,22,12.90
2018,10,19,18,23,12.90
2018,10,19,18,24,12.80
2018,10,19,18,25,12.80
2018,10,19,18,26,12.80
2018,10,19,18,27,12.80
2018,10,19,18,28,12.70
2018,10,19,18,29,12.70
2018,10,19,18,30,12.70
2018,10,19,18,31,12.60
2018,10,19,18,32,12.60
2018,10,19,18,33,12.60
2018,10,19,18,34,12.50
2018,10,19,18,35,12.50
2018,10,19,18,36,12.40
2018,10,19,18,37,12.40
2018,10,19,18,38,12.30
2018,10,19,18,39,12.30
2018,10,19,18,40,12.20
2018,10,19,18,41,12.20
2018,10,19,18,42,12.10
2018,10,19,18,43,12.10
2018,10,19,18,44,12.00
2018,10,19,18,45,12.00
2018,10,19,18,46,11.90
2018,10,19,18,47,11.90
2018,10,19,18,48,11.90
2018,10,19,18,49,11.80
2018,10,19,18,50,11.80
2018,10,19,18,51,11.80
2018,10,19,18,52,11.70
2018,10,19,18,53,11.70
2018,10,19,18,54,11.70
2018,10,19,18,55,11.60
2018,10,19,18,56,11.60
2018,10,19,18,57,11.60
2018,10,19,18,58,11.50
2018,10,19,18,59,11.50
2018,10,19,19,00,11.40
2018,10,19,19,01,11.40
2018,10,19,19,02,11.40
2018,10,19,19,03,11.30
2018,10,19,19,04,11.30
2018,10,19,19,05,11.30
2018,10,19,19,06,11.20
2018,10,19,19,07,11.20
2018,10,19,19,08,11.20
2018,10,19,19,09,11.20
2018,10,19,19,10,11.10
2018,10,19,19,11,11.10
2018,10,19,19,12,11.00
2018,10,19,19,13,11.00
2018,10,19,19,14,10.90
2018,10,19,19,15,10.90
2018,10,19,19,16,10.80
2018,10,19,19,17,10.80
2018,10,19,19,18,10.70
2018,10,19,19,19,10.60
2018,10,19,19,20,10.60
2018,10,19,19,21,10.50
2018,10,19,19,22,10.40
2018,10,19,19,23,10.40
2018,10,19,19,24,10.40
2018,10,19,19,25,10.30
2018,10,19,19,26,10.30
2018,10,19,19,27,10.30
2018,10,19,19,28,10.20
2018,10,19,19,29,10.20
2018,10,19,19,30,10.20
2018,10,19,19,31,10.10
2018,10,19,19,32,10.10
2018,10,19,19,33,10.10
2018,10,19,19,34,10.10
2018,10,19,19,35,10.10
2018,10,19,19,36,10.00
2018,10,19,19,37,10.00
2018,10,19,19,38,10.00
2018,10,19,19,39,10.00
2018,10,19,19,40,10.00
2018,10,19,19,41,10.00
2018,10,19,19,42,10.00
2018,10,19,19,43,10.00
2018,10,19,19,44,10.00
2018,10,19,19,45,9.90
2018,10,19,19,46,10.00
2018,10,19,19,47,10.00
2018,10,19,19,48,10.00
2018,10,19,19,49,10.00
2018,10,19,19,50,10.00
2018,10,19,19,51,10.00
2018,10,19,19,52,10.00
2018,10,19,19,53,9.90
2018,10,19,19,54,9.90
2018,10,19,19,55,9.90
2018,10,19,19,56,9.80
2018,10,19,19,57,9.80
2018,10,19,19,58,9.80
2018,10,19,19,59,9.80
2018,10,19,20,00,9.70
2018,10,19,20,01,9.70
2018,10,19,20,02,9.70
2018,10,19,20,03,9.60
2018,10,19,20,04,9.60
2018,10,19,20,05,9.60
2018,10,19,20,06,9.60
2018,10,19,20,07,9.60
2018,10,19,20,08,9.50
2018,10,19,20,09,9.50
2018,10,19,20,10,9.50
2018,10,19,20,11,9.50
2018,10,19,20,12,9.50
2018,10,19,20,13,9.40
2018,10,19,20,14,9.40
2018,10,19,20,15,9.40
2018,10,19,20,16,9.40
2018,10,19,20,17,9.30
2018,10,19,20,18,9.30
2018,10,19,20,19,9.30
2018,10,19,20,20,9.30
2018,10,19,20,21,9.30
2018,10,19,20,22,9.30
2018,10,19,20,23,9.30
2018,10,19,20,24,9.30
2018,10,19,20,25,9.30
2018,10,19,20,26,9.20